User: anonymous   Login
Location: Las Callecitas
(9.8750°N, 67.4611°W)
Time: 07:58:49
(UTC+00:00)
Language:

Cosmos 1400 Rocket - Orbit

View from above orbital plane
View from above orbital plane
View from above satellite
View from above satellite

Ground track
Ground track

The orbit data is extracted from the following two-line orbital elements,

1 13403U 82079B   24169.91442842  .00004510  00000-0  24048-3 0  9994
2 13403  81.1512 211.3325 0031180 123.5582 236.8630 15.14545476282021
Epoch (UTC): 17 June 2024 21:56:46
Eccentricity: 0.0031180
inclination: 81.1512°
perigee height: 501 km
apogee height: 544 km
right ascension of ascending node: 211.3325°
argument of perigee: 123.5582°
revolutions per day: 15.14545476
mean anomaly at epoch: 236.8630°
orbit number at epoch: 28202

The dashed part of the orbit path shows where the satellite is in the earth's shadow,  

DLR